Home   Weather   Schleswig   Past weeks

Flag for Germany Past Weather in Schleswig, Schleswig-Holstein, Germany — Yesterday and Last 2 Weeks

Now
48 °F

Fog.


Feels Like: 41 °F
Forecast: 48 / 50 °F
Wind: 21 mph from Southwest

Location: Schleswig-Jagel

Current Time: Dec 8, 2016 at 1:20:06 pm

Latest Report: Dec 8, 2016 at 12:20 pm


Visibility: 2 mi

Pressure: 30.12 "Hg

Humidity: 94%

Dew Point: 46 °F

Location of SchleswigLocation

Past Weather in Schleswig — Graph

°F

Schleswig Temperature Yesterday

Maximum temperature yesterday: 45 °F (at 11:20 pm)
Minimum temperature yesterday: 36 °F (at 2:20 am)
Average temperature yesterday: 39 °F

High & Low Weather Summary for the Past Weeks

 TemperatureHumidityPressure
High48 °F (Nov 23, 12:20 pm)100% (Nov 23, 6:20 pm)30.54 "Hg (Nov 23, 6:20 pm)
Low21 °F (Nov 29, 1:20 am)61% (Nov 27, 1:20 pm)29.86 "Hg (Dec 1, 10:20 pm)
Average37 °F88%30.24 "Hg
* Reported Nov 23 11:20 am — Dec 8 11:20 am, Schleswig, Weather by CustomWeather, © 2016

Note: Actual official high and low records may vary slightly from our data, if they occured in-between our weather recording intervals... More about our weather records

Advertising

Schleswig Weather History for the Previous 24 Hours

Scroll right to see more
 ConditionsComfort  
Time TempWeatherWind HumidityBarometerVisibility
11:20 am
Thu, Dec 8
48 °FFog.16 mph94%30.15 "Hg3 mi
10:56 am48 °FFog.18 mph94%30.15 "Hg2 mi
10:20 am48 °FFog.17 mph87%30.18 "Hg3 mi
9:20 am48 °FFog.17 mph87%30.15 "Hg3 mi
8:20 am48 °FFog.22 mph87%30.15 "Hg3 mi
7:20 am46 °FPassing clouds.23 mph87%30.15 "Hg4 mi
6:20 am46 °FPassing clouds.22 mph87%30.12 "Hg4 mi
5:45 am46 °FPassing clouds.22 mph87%30.15 "Hg4 mi
5:20 am46 °FPassing clouds.22 mph87%30.12 "Hg4 mi
4:20 am45 °FQuite cool.22 mph87%30.15 "Hg6 mi
3:20 am45 °FQuite cool.17 mph87%30.15 "Hg6 mi
2:20 am45 °FQuite cool.23 mph87%30.15 "Hg6 mi
1:20 am45 °FQuite cool.21 mph87%30.15 "HgN/A
12:20 am45 °FQuite cool.18 mph87%30.15 "HgN/A
11:20 pm
Wed, Dec 7
45 °FQuite cool.18 mph87%30.18 "Hg6 mi
10:20 pm43 °FQuite cool.16 mph93%30.18 "Hg6 mi
9:20 pm43 °FQuite cool.18 mph93%30.18 "Hg6 mi
8:20 pm43 °FQuite cool.18 mph93%30.18 "Hg6 mi
7:20 pm43 °FQuite cool.20 mph93%30.18 "HgN/A
6:20 pm43 °FQuite cool.18 mph93%30.18 "Hg6 mi
5:20 pm43 °FQuite cool.13 mph87%30.21 "HgN/A
4:55 pm43 °FPassing clouds.15 mph87%30.21 "Hg5 mi
4:20 pm43 °FPartly cloudy.14 mph87%30.21 "Hg4 mi
3:20 pm41 °FOvercast.13 mph93%30.21 "Hg4 mi
2:20 pm41 °FLow clouds.15 mph87%30.24 "Hg4 mi
1:20 pm39 °FDrizzle. Overcast.9 mph93%30.24 "Hg4 mi
Weather by CustomWeather, © 2016

See weather overviewHow to use our weather pages